FW1492 Weather Reports


Display with metric or nautical units.
time (UTC)temp
F
wind
direction
speed
MPH
gust
MPH
rain 1hr
in
rain 24hr
in
rain mn
in
humidity
%
barometer
mb
20260506184506 58 222 1.0 4.0 0.03 0.11 0.11 95 1007.5
20260506183006 58 228 1.0 4.0 0.02 0.10 0.10 95 1007.5
20260506181505 57 231 2.0 5.0 0.02 0.09 0.09 95 1007.5
20260506180014 57 243 2.0 6.0 0.01 0.08 0.08 94 1007.6
20260506174503 57 128 1.0 7.0 0.02 0.08 0.08 94 1007.7
20260506173003 57 212 2.0 6.0 0.02 0.08 0.08 94 1007.8
20260506171611 58 198 3.0 6.0 0.03 0.07 0.07 94 1007.5
20260506170112 58 179 2.0 10.0 0.05 0.07 0.07 94 1007.5
20260506164614 58 214 2.0 6.0 0.04 0.06 0.06 93 1007.7
20260506163102 59 204 2.0 6.0 0.04 0.06 0.06 93 1007.7
20260506161554 59 188 3.0 6.0 0.03 0.04 0.04 92 1008.2
20260506160105 59 165 1.0 4.0 0.02 0.02 0.02 92 1008.4
20260506154553 60 186 1.0 5.0 0.02 0.02 0.02 91 1008.7
20260506153048 60 226 1.0 5.0 0.02 0.02 0.02 91 1008.5
20260506151549 60 217 1.0 3.0 0.01 0.01 0.01 89 1008.7
20260506150046 61 211 1.0 6.0 0.00 0.00 0.00 86 1009.0
20260506144545 61 193 2.0 6.0 0.00 0.00 0.00 84 1009.1
20260506143044 61 207 1.0 5.0 0.00 0.00 0.00 84 1009.0
20260506141603 61 212 1.0 5.0 0.00 0.00 0.00 84 1008.8
20260506140044 61 202 1.0 4.0 0.00 0.00 0.00 83 1008.8
20260506134543 62 243 3.0 6.0 0.00 0.00 0.00 83 1009.1
20260506133042 62 205 2.0 6.0 0.00 0.00 0.00 82 1009.1
20260506131543 62 229 2.0 6.0 0.00 0.00 0.00 83 1009.0
20260506130041 61 212 2.0 6.0 0.00 0.00 0.00 84 1009.0
20260506124640 61 207 2.0 6.0 0.00 0.00 0.00 84 1008.8
20260506123043 61 223 1.0 6.0 0.00 0.00 0.00 85 1008.9
20260506121538 60 176 3.0 6.0 0.00 0.00 0.00 85 1008.9
20260506120104 60 204 2.0 6.0 0.00 0.00 0.00 86 1009.2
20260506114536 60 168 2.0 6.0 0.00 0.00 0.00 86 1009.1
20260506113036 60 221 3.0 7.0 0.00 0.00 0.00 86 1009.1
20260506111539 60 202 2.0 6.0 0.00 0.00 0.00 87 1009.0
20260506110035 60 225 1.0 5.0 0.00 0.00 0.00 87 1009.0
20260506104533 60 213 1.0 7.0 0.00 0.00 0.00 87 1008.8
20260506103035 60 210 2.0 5.0 0.00 0.00 0.00 87 1008.9
20260506101533 60 208 1.0 5.0 0.00 0.00 0.00 87 1008.7
20260506100033 60 172 3.0 6.0 0.00 0.00 0.00 87 1008.8
20260506094535 60 210 2.0 6.0 0.00 0.00 0.00 86 1008.7
20260506093041 60 205 3.0 5.0 0.00 0.00 0.00 86 1008.7
20260506091527 60 221 2.0 5.0 0.00 0.00 0.00 86 1008.8
20260506090025 60 203 3.0 7.0 0.00 0.00 0.00 85 1008.8
20260506084522 60 195 3.0 6.0 0.00 0.00 0.00 84 1008.8
20260506083020 61 217 2.0 4.0 0.00 0.00 0.00 83 1009.0
20260506081518 61 185 3.0 5.0 0.00 0.00 0.00 81 1009.0
20260506073013 62 211 3.0 6.0 0.00 0.00 0.00 76 1009.1
20260506071510 63 192 2.0 6.0 0.00 0.00 0.00 75 1009.2
20260506061503 64 214 3.0 7.0 0.00 0.00 0.00 71 1009.6
20260506050103 64 211 3.0 7.0 0.00 0.00 0.00 71 1010.0
20260506044559 64 207 3.0 6.0 0.00 0.00 0.00 71 1010.3
20260506043051 64 181 3.0 7.0 0.00 0.00 0.00 70 1010.2
20260506041553 64 226 4.0 8.0 0.00 0.00 0.00 70 1010.2
20260506040047 65 209 3.0 9.0 0.00 0.00 0.00 70 1010.3
20260506034546 65 238 2.0 7.0 0.00 0.00 0.00 69 1010.2
20260506033045 65 205 3.0 8.0 0.00 0.00 0.00 68 1010.1
20260506031556 66 209 3.0 6.0 0.00 0.00 0.00 66 1010.2
20260506030058 66 207 3.0 7.0 0.00 0.00 0.00 63 1010.0
20260506024544 67 174 3.0 7.0 0.00 0.00 0.00 60 1009.7
20260506023043 68 205 3.0 6.0 0.00 0.00 0.00 58 1010.0
20260506021542 68 207 3.0 7.0 0.00 0.00 0.00 57 1010.0
20260506020042 69 201 3.0 6.0 0.00 0.00 0.00 56 1010.0
20260506014541 69 169 2.0 8.0 0.00 0.00 0.00 56 1010.1
20260506013045 69 173 3.0 8.0 0.00 0.00 0.00 55 1010.0
20260506011540 70 205 3.0 5.0 0.00 0.00 0.00 53 1009.8
20260506010039 70 210 2.0 6.0 0.00 0.00 0.00 51 1009.8
20260506004605 70 198 3.0 6.0 0.00 0.00 0.00 49 1009.8
20260506003038 71 214 2.0 5.0 0.00 0.00 0.00 48 1009.7
20260506001537 71 212 2.0 6.0 0.00 0.00 0.00 47 1009.5
20260506000038 72 208 3.0 8.0 0.00 0.00 0.00 46 1009.1
20260505234604 72 191 2.0 6.0 0.00 0.00 0.00 46 1009.1
20260505233035 72 222 2.0 6.0 0.00 0.00 0.00 45 1009.1
20260505231536 73 235 2.0 6.0 0.00 0.00 0.00 43 1009.0
20260505230035 73 210 2.0 7.0 0.00 0.00 0.00 43 1008.8
20260505224534 73 186 4.0 8.0 0.00 0.00 0.00 42 1008.7
20260505223035 74 251 5.0 10.0 0.00 0.00 0.00 41 1008.7
20260505221531 75 224 3.0 9.0 0.00 0.00 0.00 41 1008.6
20260505220030 76 217 5.0 10.0 0.00 0.00 0.00 39 1008.5
20260505214537 77 224 4.0 9.0 0.00 0.00 0.00 38 1008.3
20260505213027 77 232 4.0 9.0 0.00 0.00 0.00 39 1008.4
20260505211526 76 200 6.0 12.0 0.00 0.00 0.00 38 1008.2
20260505210028 78 203 5.0 10.0 0.00 0.00 0.00 36 1008.0
20260505204526 79 264 2.0 7.0 0.00 0.00 0.00 37 1008.1
20260505203024 78 250 6.0 12.0 0.00 0.00 0.00 38 1008.3
20260505201526 79 229 4.0 9.0 0.00 0.00 0.00 38 1008.2
20260505200024 78 202 5.0 9.0 0.00 0.00 0.00 38 1008.3
20260505194517 78 224 3.0 8.0 0.00 0.00 0.00 39 1008.2
20260505193017 78 205 5.0 9.0 0.00 0.00 0.00 39 1008.4
20260505191514 78 240 4.0 10.0 0.00 0.00 0.00 38 1008.5
20260505190013 78 230 6.0 10.0 0.00 0.00 0.00 39 1008.6